Weather reports worldwide

Advertisment
Leuchars, United Kingdom (3171): temperature & dewpoint: 08.12.2017 18:00:00 - 14.12.2017 18:00:00 (GMT)Leuchars, United Kingdom (3171): temperature -20cm & temperature -100cm: 08.12.2017 18:00:00 - 14.12.2017 18:00:00 (GMT)Leuchars, United Kingdom (3171): wind speed & gusts: 08.12.2017 18:00:00 - 14.12.2017 18:00:00 (GMT)Leuchars, United Kingdom (3171): wind direction: 08.12.2017 18:00:00 - 14.12.2017 18:00:00 (GMT)Leuchars, United Kingdom (3171): reduced air pressure: 08.12.2017 18:00:00 - 14.12.2017 18:00:00 (GMT)Leuchars, United Kingdom (3171): visibility: 08.12.2017 18:00:00 - 14.12.2017 18:00:00 (GMT)Leuchars, United Kingdom (3171): sunshine duration: 08.12.2017 18:00:00 - 14.12.2017 18:00:00 (GMT)Leuchars, United Kingdom (3171): precipitation: 08.12.2017 18:00:00 - 14.12.2017 18:00:00 (GMT)
Date & Time tt [°C] td [°C] tt -20cm [°C] tt -100cm [°C] ff [km/h] ff [kn] fx [km/h] fx [kn] dd ppp [hPa] vv [km] sd [min] rr [mm]
14.12.2017 18:00:00 -2,4 -3,6 - - 5 3 - - WNW 982,0 10 0 0,0
14.12.2017 17:00:00 -0,6 -1,9 - - 8 4 - - W 981,2 10 0 0,0
14.12.2017 16:00:00 0,8 -0,3 - - 9 5 - - WNW 980,5 10 12 0,0
14.12.2017 15:00:00 1,0 0,3 - - 11 6 - - W 979,8 10 24 0,0
14.12.2017 14:00:00 1,4 1,0 - - 8 4 - - WNW 979,4 10 12 0,0
14.12.2017 13:00:00 1,6 1,4 - - 8 4 - - W 979,3 10 0 0,0
14.12.2017 12:00:00 0,8 0,6 - - 8 4 - - WSW 979,4 6 0 0,8
14.12.2017 11:00:00 0,8 0,5 - - 8 4 - - WSW 979,9 4,2 0 0,6
14.12.2017 10:00:00 1,5 0,8 - - 11 6 - - W 979,8 9 0 0,0
14.12.2017 09:00:00 1,1 0,5 3,2 6,2 5 3 - - W 979,6 15 0 0,0
14.12.2017 08:00:00 0,4 -0,7 - - 5 3 - - NNW 979,5 10 0 0,0
14.12.2017 07:00:00 0,7 -0,1 - - 5 3 - - W 979,7 10 0 0,0
14.12.2017 06:00:00 -0,1 -1,3 - - 11 6 - - W 979,9 10 0 0,0
14.12.2017 05:00:00 -0,2 -1,2 - - 18 10 - - W 980,0 10 0 0,0
14.12.2017 04:00:00 0,6 -0,7 - - 24 13 - - W 980,3 10 0 0,0
14.12.2017 03:00:00 0,1 -1,1 - - 18 10 - - W 980,6 10 0 0,0
14.12.2017 02:00:00 -0,3 -1,3 - - 16 9 - - W 980,8 10 0 0,0
14.12.2017 01:00:00 0,1 -1,0 - - 13 7 - - W 980,8 10 0 0,0
14.12.2017 00:00:00 -0,4 -1,5 - - 13 7 - - WSW 980,6 10 - 0,0
13.12.2017 23:00:00 0,2 -0,7 - - 16 9 - - W 980,6 10 0 0,0
13.12.2017 22:00:00 0,2 -0,6 - - 24 13 - - WSW 980,6 10 0 0,0
13.12.2017 21:00:00 -0,1 -1,1 - - 15 8 - - WSW 980,7 10 0 0,0
13.12.2017 20:00:00 0,7 -0,1 - - 16 9 - - W 980,9 10 0 0,0
13.12.2017 19:00:00 0,7 0,0 - - 24 13 - - W 980,7 10 0 0,0
13.12.2017 18:00:00 1,2 0,0 - - 28 15 - - W 980,7 50 0 0,0
13.12.2017 17:00:00 1,4 0,0 - - 28 15 - - W 980,6 10 0 0,0
13.12.2017 16:00:00 1,4 0,3 - - 29 16 - - W 980,9 10 0 0,0
13.12.2017 15:00:00 2,6 0,8 - - 28 15 - - W 981,1 10 24 0,0
13.12.2017 14:00:00 3,4 1,7 - - 26 14 - - WSW 981,3 10 24 0,0
13.12.2017 13:00:00 3,7 2,0 - - 18 10 - - W 981,7 50 6 0,0
13.12.2017 12:00:00 3,9 2,3 - - 16 9 - - W 982,2 45 0 0,0
13.12.2017 11:00:00 4,7 3,4 - - 26 14 - - W 982,9 30 0 0,0
13.12.2017 10:00:00 4,8 3,8 - - 26 14 - - WSW 983,1 10 0 0,2
13.12.2017 09:00:00 4,4 3,1 3,2 6,5 34 18 50 27 SW 984,1 23 0 0,0
13.12.2017 08:00:00 4,7 3,2 - - 31 17 - - SW 985,8 10 0 0,2
13.12.2017 07:00:00 4,1 2,9 - - 24 13 - - SW 986,8 10 0 0,0
13.12.2017 06:00:00 3,3 2,2 - - 21 11 - - WSW 988,8 10 0 0,0
13.12.2017 05:00:00 2,9 2,1 - - 13 7 - - W 990,0 24 0 0,0
13.12.2017 04:00:00 1,7 0,9 - - 21 11 - - WSW 991,0 10 0 0,0
13.12.2017 03:00:00 1,5 0,9 - - 13 7 - - WSW 991,6 10 0 0,0
13.12.2017 02:00:00 1,7 1,0 - - 9 5 - - W 992,1 10 0 0,0
13.12.2017 01:00:00 0,7 0,4 - - 16 9 - - WSW 992,3 10 0 0,0
13.12.2017 00:00:00 1,1 0,6 - - 5 3 - - NW 992,7 10 - 0,0
12.12.2017 23:00:00 2,2 1,4 - - 11 6 - - W 992,5 10 0 0,0
12.12.2017 22:00:00 2,7 1,7 - - 2 1 - - NW 992,4 10 0 0,0
12.12.2017 21:00:00 2,8 2,0 - - 13 7 - - SW 993,5 10 0 0,2
12.12.2017 20:00:00 3,3 1,9 - - 21 11 - - SSW 994,4 10 0 0,0
12.12.2017 19:00:00 2,8 1,8 - - 11 6 - - SSW 995,8 10 0 0,2
12.12.2017 18:00:00 0,9 -0,1 - - 2 1 - - NE 997,2 10 0 0,0
12.12.2017 17:00:00 0,9 -0,4 - - 2 1 - - W 998,0 10 0 0,0
12.12.2017 16:00:00 1,6 0,1 - - 11 6 - - W 998,7 35 0 0,0
12.12.2017 15:00:00 0,7 -0,9 - - 8 4 - - W 999,3 10 0 0,0
12.12.2017 14:00:00 0,6 -1,2 - - 9 5 - - W 1000,2 50 0 0,0
12.12.2017 13:00:00 0,7 -1,5 - - 16 9 - - W 1001,0 10 6 0,0
12.12.2017 12:00:00 1,1 -1,4 - - 16 9 - - W 1001,4 10 24 0,0
12.12.2017 11:00:00 -1,1 -2,8 - - 11 6 - - WSW 1001,6 10 0 0,0
12.12.2017 10:00:00 -0,8 -3,0 - - 11 6 - - W 1002,1 10 0 0,0
12.12.2017 09:00:00 -1,7 -4,4 3,5 6,7 16 9 - - W 1002,0 10 0 0,0
12.12.2017 08:00:00 -0,9 -2,2 - - 16 9 - - W 1002,1 10 0 0,0
12.12.2017 07:00:00 -2,9 -4,8 - - 11 6 - - W 1001,8 10 0 0,0
12.12.2017 06:00:00 -1,0 -3,5 - - 15 8 - - W 1001,8 10 0 0,0
12.12.2017 05:00:00 -1,9 -4,1 - - 13 7 - - W 1001,4 50 0 0,0
12.12.2017 04:00:00 -2,2 -3,6 - - 9 5 - - WSW 1001,3 50 0 0,0
12.12.2017 03:00:00 -1,2 -3,4 - - 11 6 - - W 1001,5 45 0 0,0
12.12.2017 02:00:00 0,8 -1,3 - - 16 9 - - W 1001,0 10 0 0,0
12.12.2017 01:00:00 1,6 -1,5 - - 15 8 - - WNW 1000,2 10 0 0,0
12.12.2017 00:00:00 0,2 -1,3 - - 13 7 - - WNW 999,5 10 - 0,0
11.12.2017 23:00:00 -0,3 -1,4 - - 8 4 - - W 999,0 10 0 0,0
11.12.2017 22:00:00 1,8 -0,4 - - 9 5 - - NW 998,9 10 0 0,0
11.12.2017 21:00:00 0,3 -1,6 - - 11 6 - - NW 998,5 10 0 0,0
11.12.2017 20:00:00 0,7 -1,4 - - 8 4 - - NNW 997,5 10 0 0,0
11.12.2017 19:00:00 0,7 -0,7 - - 9 5 - - NW 996,3 10 0 0,0
11.12.2017 18:00:00 0,5 -1,9 - - 8 4 - - NW 995,1 10 0 0,0
11.12.2017 17:00:00 0,9 -1,2 - - 5 3 - - NW 994,3 10 0 0,0
11.12.2017 16:00:00 0,8 -1,2 - - 5 3 - - NNW 993,4 10 6 0,0
11.12.2017 15:00:00 2,3 -0,3 - - 8 4 - - W 992,4 10 6 0,0
11.12.2017 14:00:00 2,1 -0,8 - - 9 5 - - W 991,5 10 24 0,0
11.12.2017 13:00:00 1,3 -1,0 - - 9 5 - - W 990,8 10 6 0,0
11.12.2017 12:00:00 1,0 -1,7 - - 9 5 - - W 990,4 45 30 0,0
11.12.2017 11:00:00 0,3 -2,0 - - 13 7 - - W 989,9 10 48 0,0
11.12.2017 10:00:00 -1,2 -2,9 - - 9 5 - - W 989,2 10 0 0,0
11.12.2017 09:00:00 -3,2 -4,4 3,9 7,0 9 5 - - W 988,7 10 0 0,0
11.12.2017 08:00:00 -4,0 -5,8 - - 9 5 - - W 987,9 10 0 0,0
11.12.2017 07:00:00 -3,0 -4,9 - - 15 8 - - W 987,1 10 0 0,0
11.12.2017 06:00:00 -3,5 -5,7 - - 11 6 - - W 986,7 10 0 0,0
11.12.2017 05:00:00 -4,0 -6,5 - - 13 7 - - WSW 986,1 10 0 0,0
11.12.2017 04:00:00 -4,6 -6,5 - - 16 9 - - W 985,4 10 0 0,0
11.12.2017 03:00:00 -5,0 -6,9 - - 15 8 - - WSW 985,1 10 0 0,0
11.12.2017 02:00:00 -5,1 -7,2 - - 11 6 - - W 984,8 10 0 0,0
11.12.2017 01:00:00 -3,9 -6,7 - - 15 8 - - W 984,5 10 0 0,0
11.12.2017 00:00:00 -4,6 -6,8 - - 11 6 - - SW 984,2 10 - 0,0
10.12.2017 23:00:00 -4,3 -6,4 - - 16 9 - - W 983,8 10 0 0,0
10.12.2017 22:00:00 -5,3 -7,5 - - 15 8 - - W 983,2 10 0 0,0
10.12.2017 21:00:00 -5,5 -7,1 - - 13 7 - - WSW 983,1 10 0 0,0
10.12.2017 20:00:00 -5,4 -7,3 - - 16 9 - - WSW 982,7 10 0 0,0
10.12.2017 19:00:00 -4,1 -6,1 - - 13 7 - - W 982,5 10 0 0,0
10.12.2017 18:00:00 -3,9 -6,1 - - 16 9 - - W 982,3 10 0 0,0
10.12.2017 17:00:00 -2,4 -5,4 - - 15 8 - - W 982,0 10 0 0,0
10.12.2017 16:00:00 -2,1 -5,3 - - 15 8 - - W 981,8 10 6 0,0
10.12.2017 15:00:00 -1,7 -5,2 - - 11 6 - - W 981,8 10 60 0,0
10.12.2017 14:00:00 0,1 -5,2 - - 9 5 - - W 982,1 10 60 0,0
10.12.2017 13:00:00 -0,3 -5,1 - - 8 4 - - WNW 982,6 10 60 0,0
10.12.2017 12:00:00 -1,7 -4,4 - - 9 5 - - W 983,2 10 60 0,0
10.12.2017 11:00:00 -2,9 -4,9 - - 11 6 - - W 984,0 10 60 0,0
10.12.2017 10:00:00 -4,8 -5,9 - - 9 5 - - WNW 984,6 10 12 0,0
10.12.2017 09:00:00 -7,1 -8,3 4,4 7,2 8 4 - - WNW 985,5 10 0 0,0
10.12.2017 08:00:00 -6,5 -7,9 - - 5 3 - - W 986,2 10 0 0,0
10.12.2017 07:00:00 -5,9 -7,8 - - 9 5 - - W 987,3 10 0 0,0
10.12.2017 06:00:00 -4,3 -5,9 - - 9 5 - - WSW 988,4 10 0 0,0
10.12.2017 05:00:00 -4,2 -6,1 - - 8 4 - - NNW 989,8 10 0 0,0
10.12.2017 04:00:00 -4,4 -6,5 - - 9 5 - - W 991,7 10 0 0,0
10.12.2017 03:00:00 -4,6 -6,3 - - 9 5 - - W 993,6 10 0 0,0
10.12.2017 02:00:00 -4,2 -6,0 - - 16 9 - - W 995,1 10 0 0,0
10.12.2017 01:00:00 -3,0 -5,0 - - 16 9 - - W 996,3 10 0 0,0
10.12.2017 00:00:00 -2,2 -4,5 - - 11 6 - - W 997,9 10 - 0,0
09.12.2017 23:00:00 -2,6 -5,0 - - 13 7 - - W 999,2 10 0 0,0
09.12.2017 22:00:00 -2,5 -4,6 - - 15 8 - - W 1000,8 10 0 0,0
09.12.2017 21:00:00 -1,9 -4,2 - - 16 9 - - W 1001,9 10 0 0,0
09.12.2017 20:00:00 -2,5 -4,4 - - 11 6 - - W 1003,1 10 0 0,0
09.12.2017 19:00:00 -1,7 -3,9 - - 18 10 - - W 1004,3 10 0 0,0
09.12.2017 18:00:00 -2,2 -4,0 - - 15 8 - - WSW 1005,0 10 0 0,0
09.12.2017 17:00:00 -1,1 -3,3 - - 11 6 - - W 1005,7 10 0 0,0
09.12.2017 16:00:00 0,5 -3,9 - - 16 9 - - W 1006,4 10 6 0,0
09.12.2017 15:00:00 2,8 -3,0 - - 18 10 - - WNW 1007,0 10 42 0,0
09.12.2017 14:00:00 3,0 -2,9 - - 18 10 - - W 1008,0 10 36 0,0
09.12.2017 13:00:00 2,6 -2,9 - - 16 9 - - WNW 1009,0 10 42 0,0
09.12.2017 12:00:00 2,2 -3,2 - - 16 9 - - WNW 1010,0 10 0 0,0
09.12.2017 11:00:00 1,8 -3,6 - - 16 9 - - WNW 1011,0 10 0 0,0
09.12.2017 10:00:00 1,4 -3,7 - - 16 9 - - WNW 1011,6 10 6 0,0
09.12.2017 09:00:00 0,7 -3,2 4,9 7,2 9 5 - - NW 1012,0 45 0 0,0
09.12.2017 08:00:00 0,8 -3,9 - - 21 11 - - WNW 1012,0 10 0 0,0
09.12.2017 07:00:00 1,1 -4,0 - - 24 13 - - WNW 1012,4 10 0 0,0
09.12.2017 06:00:00 1,3 -4,2 - - 18 10 - - W 1012,4 10 0 0,0
09.12.2017 05:00:00 1,6 -3,8 - - 24 13 - - W 1013,1 10 0 0,0
09.12.2017 04:00:00 -1,6 -4,5 - - 16 9 - - WSW 1013,6 10 0 0,0
09.12.2017 03:00:00 1,9 -3,6 - - 21 11 - - WNW 1013,9 10 0 0,0
09.12.2017 02:00:00 -0,2 -4,1 - - 15 8 - - W 1014,1 10 0 0,0
09.12.2017 01:00:00 0,8 -2,7 - - 16 9 - - W 1014,5 10 0 0,0
09.12.2017 00:00:00 -0,9 -3,6 - - 16 9 - - WSW 1014,5 10 - 0,0
08.12.2017 23:00:00 -0,1 -3,9 - - 11 6 - - W 1014,2 10 0 0,0
08.12.2017 22:00:00 1,8 -3,1 - - 22 12 - - WNW 1013,9 10 0 0,0
08.12.2017 21:00:00 1,4 -3,3 - - 29 16 - - WNW 1013,3 10 0 0,0
08.12.2017 20:00:00 1,2 -2,8 - - 26 14 - - WNW 1013,5 10 0 0,0
08.12.2017 19:00:00 1,4 -3,2 - - 28 15 54 29 WNW 1012,7 10 0 0,0
08.12.2017 18:00:00 1,4 -3,5 - - 29 16 57 31 WNW 1011,8 10 0 0,0

tt = temperature
td = dewpoint
tt -20cm = temperature -20cm
tt -100cm = temperature -100cm
ff = wind speed
fx = gusts
dd = wind direction
ppp = reduced air pressure
vv = visibility
sd = sunshine duration
rr = precipitation

Next stations